IS0GQX-3 Weather Reports


time (UTC)temp
C
wind
direction
speed
KPH
gust
KPH
rain 1hr
cm
rain 24hr
cm
rain mn
cm
humidity
%
barometer
mb
20260505180733 23 0.0 0.0 0.00 0.00 7.11 1014.8
20260505172938 25 0.0 0.0 0.00 0.00 0.00 1014.6
20260505170956 25 0.0 0.0 0.00 0.00 0.00 1014.3
20260505164939 25 0.0 0.0 0.00 0.00 0.00 1015.0
20260505163000 26 0.0 0.0 0.00 0.00 0.00 1014.8
20260505160939 26 0.0 0.0 0.00 0.00 0.00 1015.0
20260505150936 28 0.0 0.0 0.00 0.00 0.00 1015.1
20260505124934 31 0.0 0.0 0.00 0.00 0.00 1015.8
20260505122934 30 0.0 0.0 0.00 0.00 0.00 1015.9
20260505120934 29 0.0 0.0 0.00 0.00 0.00 1015.9
20260505114933 25 0.0 0.0 0.00 0.00 0.00 1016.7
20260505112933 25 0.0 0.0 0.00 0.00 0.00 1016.8
20260505110933 24 0.0 0.0 0.00 0.00 0.00 1016.7
20260505100932 25 0.0 0.0 0.00 0.00 0.00 1017.4
20260505094931 25 0.0 0.0 0.00 0.00 0.00 1017.5
20260505092931 25 0.0 0.0 0.00 0.00 0.00 1017.3
20260505090931 25 0.0 0.0 0.00 0.00 0.00 1017.2
20260505084931 26 0.0 0.0 0.00 0.00 0.00 1016.6
20260505082930 26 0.0 0.0 0.00 0.00 0.00 1016.2
20260505080930 26 0.0 0.0 0.00 0.00 0.00 1016.0
20260505074930 26 0.0 0.0 0.00 0.00 0.00 1016.1
20260505072929 26 0.0 0.0 0.00 0.00 0.00 1016.4
20260505070929 25 0.0 0.0 0.00 0.00 0.00 1016.5
20260505064929 25 0.0 0.0 0.00 0.00 0.00 1016.4
20260505062928 25 0.0 0.0 0.00 0.00 0.00 1016.4
20260505060928 25 0.0 0.0 0.00 0.00 0.00 1016.7
20260505054928 24 0.0 0.0 0.00 0.00 0.00 1016.5
20260505052927 25 0.0 0.0 0.00 0.00 0.00 1016.6
20260505050927 25 0.0 0.0 0.00 0.00 0.00 1016.5
20260505040926 25 0.0 0.0 0.00 0.00 0.00 1016.2
20260505034927 24 0.0 0.0 0.00 0.00 0.00 1016.5
20260505032927 25 0.0 0.0 0.00 0.00 0.00 1015.8
20260505030925 25 0.0 0.0 0.00 0.00 0.00 1016.1
20260505024925 23 0.0 0.0 0.00 0.00 0.00 1015.8
20260505022926 23 0.0 0.0 0.00 0.00 0.00 1016.4
20260505020924 24 0.0 0.0 0.00 0.00 0.00 1016.8
20260505014924 24 0.0 0.0 0.00 0.00 0.00 1016.7
20260505012924 24 0.0 0.0 0.00 0.00 0.00 1016.7
20260505010923 24 0.0 0.0 0.00 0.00 0.00 1016.9
20260505004923 23 0.0 0.0 0.00 0.00 0.00 1016.9
20260505002923 23 0.0 0.0 0.00 0.00 0.00 1017.2
20260505000923 24 0.0 0.0 0.00 0.00 0.00 1017.3
20260504234923 24 0.0 0.0 0.00 0.00 0.00 1017.5
20260504232922 25 0.0 0.0 0.00 0.00 0.00 1017.4
20260504230922 25 0.0 0.0 0.00 0.00 0.00 1017.9
20260504224921 25 0.0 0.0 0.00 0.00 0.00 1017.9
20260504222921 25 0.0 0.0 0.00 0.00 0.00 1017.2
20260504220921 25 0.0 0.0 0.00 0.00 0.00 1017.9
20260504214920 25 0.0 0.0 0.00 0.00 0.00 1018.0
20260504212921 25 0.0 0.0 0.00 0.00 0.00 1018.2
20260504210921 25 0.0 0.0 0.00 0.00 0.00 1018.2
20260504204919 25 0.0 0.0 0.00 0.00 0.00 1018.3
20260504202920 25 0.0 0.0 0.00 0.00 0.00 1018.4
20260504200919 26 0.0 0.0 0.00 0.00 0.00 1018.2
20260504194919 25 0.0 0.0 0.00 0.00 0.00 1017.8
20260504192918 25 0.0 0.0 0.00 0.00 0.00 1017.9
20260504190920 25 0.0 0.0 0.00 0.00 0.00 1017.9
20260504184917 25 0.0 0.0 0.00 0.00 0.00 1017.7
20260504182917 26 0.0 0.0 0.00 0.00 0.00 1017.0